Starlink 5709

operational
NORAD ID: 55621 Int'l Des: 2023-020 Owner: SPXS Country: US Constellation: starlink
LEOCIRCULAR

Starlink 5709について

説明を読み込み中...

リアルタイム位置

3D地球を読み込み中...

次回通過

高度履歴

Altitude vs Time

uPlot chart will show altitude changes over time

軌道要素

1 55621U 23020BE 26062.32847686 -.00001226 00000-0 -75762-4 0 9990
2 55621 43.0047 26.1241 0000944 263.6976 96.3759 15.02525624168119
Epoch: Mar 3, 2026 • Age: 27 hours

現在のステータス

高度 565.9 km
速度 7.58 km/s
衛星直下点 -27.85°S, 143.08°E
打ち上げ日 Feb 12, 2023
運用期間 3 years
タイプ internet

技術仕様

分類 Payload
質量 305.00 kg
乾燥質量 290.00 kg
総質量 305.00 kg
長さ 0.20 m
直径 2.80 m
スパン 9.00 m
形状 Box + pan
製造者 SPXS
バスタイプ Starlink
フェーズステータス In Orbit
所有者/国 SPXS/US

大規模コンステレーション

Loading constellations...